When you browse on this site, cookies collect data to enhance your experience and personalize the content and advertising you see.
Visit our Privacy Policy to learn more. By continuing to use the site, you agree to this use of cookies and data.
  • In Deutschland
  • Länderverzeichnis
  • Für 7 Tage
  • Wassertemperatur
  • Satellitenkarten
  • Wetterkarte
  • Widgets
  • user-avatar
    Anmelden

    Stündliche Wetter Beloozersk

    Heute, 18 Dezember, Dienstag

    Zeit Temperatur Niederschläge Wind Luftdruck Luftfeuchtigkeit
    00:00 -12°C° 0 mm 1 m/S 706 mmHg 76%
    01:00 -13°C° 0 mm 1 m/S 706 mmHg 75%
    02:00 -13°C° 0 mm 1 m/S 706 mmHg 75%
    03:00 -13°C° 0 mm 1 m/S 706 mmHg 75%
    04:00 -15°C° 0 mm 2 m/S 706 mmHg 74%
    05:00 -15°C° 0 mm 2 m/S 706 mmHg 74%
    06:00 -15°C° 0 mm 2 m/S 706 mmHg 74%
    07:00 -13°C° 0 mm 2 m/S 705 mmHg 71%
    08:00 -12°C° 0 mm 2 m/S 705 mmHg 72%
    09:00 -12°C° 0 mm 2 m/S 705 mmHg 72%
    10:00 -9°C° 0 mm 1 m/S 705 mmHg 72%
    11:00 -8°C° 0 mm 1 m/S 705 mmHg 72%
    12:00 -7°C° 0 mm 1 m/S 705 mmHg 71%
    13:00 -7°C° 0 mm 1 m/S 705 mmHg 73%
    14:00 -8°C° 0 mm 1 m/S 705 mmHg 75%
    15:00 -9°C° 0 mm 1 m/S 705 mmHg 77%
    16:00 -10°C° 0 mm 1 m/S 705 mmHg 79%
    17:00 -10°C° 0 mm 1 m/S 706 mmHg 79%
    18:00 -10°C° 0 mm 1 m/S 706 mmHg 80%
    19:00 -9°C° 0 mm 1 m/S 706 mmHg 81%
    20:00 -9°C° 0 mm 1 m/S 706 mmHg 82%
    21:00 -10°C° 0 mm 1 m/S 706 mmHg 84%
    22:00 -10°C° 0 mm 1 m/S 707 mmHg 85%
    23:00 -10°C° 0 mm 1 m/S 707 mmHg 85%

    Morgen, 19 Dezember, Mittwoch

    Zeit Temperatur Niederschläge Wind Luftdruck Luftfeuchtigkeit
    00:00 -10°C° 0 mm 1 m/S 707 mmHg 86%
    01:00 -11°C° 0 mm 1 m/S 707 mmHg 86%
    02:00 -11°C° 0 mm 1 m/S 707 mmHg 86%
    03:00 -12°C° 0 mm 1 m/S 707 mmHg 86%
    04:00 -12°C° 0 mm 1 m/S 707 mmHg 86%
    05:00 -12°C° 0 mm 1 m/S 707 mmHg 85%
    06:00 -13°C° 0 mm 1 m/S 707 mmHg 85%
    07:00 -13°C° 0 mm 1 m/S 707 mmHg 84%
    08:00 -12°C° 0 mm 1 m/S 707 mmHg 82%
    09:00 -12°C° 0 mm 1 m/S 707 mmHg 81%
    10:00 -11°C° 0 mm 1 m/S 707 mmHg 79%
    11:00 -10°C° 0 mm 1 m/S 706 mmHg 78%
    12:00 -10°C° 0 mm 2 m/S 706 mmHg 76%
    13:00 -9°C° 0 mm 2 m/S 705 mmHg 75%
    14:00 -12°C° 0 mm 2 m/S 705 mmHg 78%
    15:00 -13°C° 0 mm 2 m/S 704 mmHg 82%
    16:00 -12°C° 0 mm 1 m/S 704 mmHg 85%
    17:00 -13°C° 0 mm 1 m/S 704 mmHg 85%
    18:00 -14°C° 0 mm 1 m/S 704 mmHg 85%
    19:00 -14°C° 0 mm 1 m/S 704 mmHg 85%
    20:00 -14°C° 0 mm 1 m/S 703 mmHg 85%
    21:00 -15°C° 0 mm 1 m/S 703 mmHg 84%
    22:00 -15°C° 0 mm 1 m/S 703 mmHg 83%
    23:00 -15°C° 0 mm 1 m/S 703 mmHg 83%

    übermorgen, 20 Dezember, Donnerstag

    Zeit Temperatur Niederschläge Wind Luftdruck Luftfeuchtigkeit
    00:00 -15°C° 0 mm 1 m/S 703 mmHg 83%
    01:00 -15°C° 0 mm 1 m/S 703 mmHg 82%
    02:00 -16°C° 0 mm 1 m/S 703 mmHg 81%
    03:00 -16°C° 0 mm 1 m/S 703 mmHg 81%
    04:00 -16°C° 0 mm 1 m/S 702 mmHg 80%
    05:00 -16°C° 0 mm 1 m/S 703 mmHg 80%
    06:00 -16°C° 0 mm 1 m/S 703 mmHg 79%
    07:00 -16°C° 0 mm 1 m/S 703 mmHg 78%
    08:00 -15°C° 0 mm 1 m/S 703 mmHg 76%
    09:00 -14°C° 0 mm 1 m/S 704 mmHg 74%
    10:00 -13°C° 0 mm 1 m/S 704 mmHg 72%
    11:00 -12°C° 0 mm 1 m/S 704 mmHg 71%
    12:00 -11°C° 0 mm 1 m/S 704 mmHg 69%
    13:00 -10°C° 0 mm 1 m/S 703 mmHg 68%
    14:00 -11°C° 0 mm 1 m/S 703 mmHg 71%
    15:00 -12°C° 0 mm 1 m/S 703 mmHg 75%
    16:00 -14°C° 0 mm 1 m/S 703 mmHg 78%
    17:00 -14°C° 0 mm 1 m/S 704 mmHg 78%
    18:00 -14°C° 0 mm 1 m/S 704 mmHg 78%
    19:00 -14°C° 0 mm 1 m/S 704 mmHg 79%
    20:00 -14°C° 0 mm 1 m/S 704 mmHg 79%
    21:00 -15°C° 0 mm 1 m/S 704 mmHg 80%
    22:00 -15°C° 0 mm 1 m/S 705 mmHg 80%
    23:00 -15°C° 0 mm 1 m/S 705 mmHg 81%

    21 Dezember, Freitag

    Zeit Temperatur Niederschläge Wind Luftdruck Luftfeuchtigkeit
    00:00 -14°C° 0 mm 0 m/S 705 mmHg 81%
    01:00 -14°C° 0 mm 0 m/S 705 mmHg 82%
    02:00 -14°C° 0 mm 1 m/S 705 mmHg 83%
    03:00 -14°C° 0 mm 1 m/S 706 mmHg 85%
    04:00 -14°C° 0 mm 1 m/S 706 mmHg 87%
    05:00 -14°C° 0.1 mm 1 m/S 707 mmHg 89%
    06:00 -14°C° 0.1 mm 1 m/S 707 mmHg 91%
    07:00 -14°C° 0.1 mm 1 m/S 708 mmHg 92%
    08:00 -13°C° 0.2 mm 1 m/S 709 mmHg 92%
    09:00 -13°C° 0.2 mm 1 m/S 710 mmHg 92%
    10:00 -14°C° 0.2 mm 2 m/S 711 mmHg 91%
    11:00 -16°C° 0.2 mm 3 m/S 711 mmHg 89%
    12:00 -17°C° 0.2 mm 4 m/S 712 mmHg 86%
    13:00 -19°C° 0.2 mm 5 m/S 712 mmHg 84%
    14:00 -19°C° 0.1 mm 4 m/S 712 mmHg 85%
    15:00 -20°C° 0.1 mm 4 m/S 713 mmHg 87%
    16:00 -21°C° 0.1 mm 3 m/S 714 mmHg 88%
    17:00 -19°C° 0.1 mm 2 m/S 714 mmHg 90%
    18:00 -20°C° 0.1 mm 2 m/S 715 mmHg 91%
    19:00 -18°C° 0.1 mm 1 m/S 715 mmHg 92%
    20:00 -19°C° 0 mm 1 m/S 716 mmHg 92%
    21:00 -20°C° 0 mm 1 m/S 716 mmHg 92%
    22:00 -21°C° 0 mm 1 m/S 716 mmHg 91%
    23:00 -25°C° 0 mm 2 m/S 716 mmHg 88%

    22 Dezember, Samstag

    Zeit Temperatur Niederschläge Wind Luftdruck Luftfeuchtigkeit
    00:00 -25°C° 0 mm 2 m/S 716 mmHg 85%
    01:00 -26°C° 0 mm 2 m/S 716 mmHg 82%
    02:00 -26°C° 0 mm 2 m/S 716 mmHg 79%
    03:00 -26°C° 0 mm 2 m/S 716 mmHg 76%
    04:00 -26°C° 0 mm 2 m/S 715 mmHg 73%
    05:00 -26°C° 0 mm 2 m/S 715 mmHg 72%
    06:00 -26°C° 0 mm 2 m/S 715 mmHg 71%
    07:00 -26°C° 0 mm 2 m/S 714 mmHg 69%
    08:00 -25°C° 0 mm 2 m/S 714 mmHg 69%
    09:00 -24°C° 0 mm 2 m/S 714 mmHg 68%
    10:00 -23°C° 0 mm 2 m/S 713 mmHg 67%
    11:00 -20°C° 0 mm 2 m/S 713 mmHg 66%
    12:00 -21°C° 0 mm 3 m/S 712 mmHg 65%
    13:00 -18°C° 0 mm 3 m/S 711 mmHg 64%
    14:00 -19°C° 0 mm 3 m/S 711 mmHg 67%
    15:00 -19°C° 0 mm 2 m/S 710 mmHg 70%
    16:00 -19°C° 0 mm 2 m/S 710 mmHg 74%
    17:00 -20°C° 0 mm 2 m/S 710 mmHg 73%
    18:00 -20°C° 0 mm 2 m/S 709 mmHg 72%
    19:00 -20°C° 0 mm 2 m/S 709 mmHg 70%
    20:00 -20°C° 0 mm 2 m/S 709 mmHg 70%
    21:00 -20°C° 0 mm 2 m/S 708 mmHg 69%
    22:00 -20°C° 0 mm 2 m/S 708 mmHg 68%
    23:00 -20°C° 0 mm 2 m/S 708 mmHg 67%

    23 Dezember, Sonntag

    Zeit Temperatur Niederschläge Wind Luftdruck Luftfeuchtigkeit
    00:00 -20°C° 0 mm 2 m/S 707 mmHg 67%
    01:00 -20°C° 0 mm 2 m/S 707 mmHg 66%
    02:00 -20°C° 0 mm 2 m/S 707 mmHg 66%
    03:00 -20°C° 0 mm 2 m/S 707 mmHg 66%
    04:00 -20°C° 0 mm 2 m/S 706 mmHg 66%
    05:00 -20°C° 0 mm 2 m/S 706 mmHg 65%
    06:00 -20°C° 0 mm 2 m/S 706 mmHg 65%
    07:00 -20°C° 0 mm 2 m/S 706 mmHg 65%
    08:00 -19°C° 0 mm 2 m/S 706 mmHg 65%
    09:00 -18°C° 0 mm 2 m/S 706 mmHg 64%
    10:00 -17°C° 0 mm 2 m/S 706 mmHg 64%
    11:00 -16°C° 0 mm 2 m/S 705 mmHg 64%
    12:00 -15°C° 0 mm 2 m/S 705 mmHg 64%
    13:00 -11°C° 0 mm 1 m/S 705 mmHg 63%
    14:00 -12°C° 0 mm 1 m/S 705 mmHg 66%
    15:00 -13°C° 0 mm 1 m/S 705 mmHg 68%
    16:00 -14°C° 0 mm 1 m/S 705 mmHg 71%
    17:00 -17°C° 0 mm 2 m/S 706 mmHg 74%
    18:00 -17°C° 0 mm 2 m/S 707 mmHg 77%
    19:00 -18°C° 0 mm 2 m/S 708 mmHg 80%
    20:00 -19°C° 0 mm 2 m/S 708 mmHg 80%
    21:00 -19°C° 0 mm 2 m/S 709 mmHg 81%
    22:00 -21°C° 0 mm 3 m/S 710 mmHg 82%
    23:00 -22°C° 0 mm 3 m/S 711 mmHg 81%
    Mehr zeigen